Showing default

COSMOS 2330, 23792

Orbit data source: Space-Track

COSMOS 2330, 23792 is a payload satellite owned by VKS (CIS) in LEO that was launched on Mon, 19 Feb 1996 UTC via a TSIKLON-3 launch vehicle from the Plesetsk Missile And Space Complex (PKMTR). Payload-class satellites include a variety of spacecraft equipped with specific instruments for various scientific and technological missions. These include communications satellites like Starlink; space stations such as the ISS; scientific satellites like the Hubble; Earth observation satellites from companies like Planet Labs, Umbra, and HawkEye 360; GPS; miniature CubeSats for education and research; and military/defense satellites.

Loading next visibility...
Identifier
23792, 1996-009F
Orbit
LEO
Country
Flag of CISCIS
Related business
Manufacturer
NPO PM
Mission
Non-operational Defense Communications
Bus & Motor
STRELA-3, Unknown motor
Mass
225 kg wet, 225 kg dry
Launch date (UTC)
1996-02-19 (30 years ago)
Launch vehicle
TSIKLON-3
Launch site
Plesetsk Missile And Space Complex (PKMTR)
Object type
Payload
Rocket body
Debris
Shape & HBR
Cyl + 1 Ant, 3.5 m
Radar Cross Section
1.583 m², Medium (>0.1 m² and < 1m²)

Expand to show TLE details & history
Last TLE update: 18 hours ago

TLE from 18 hours ago
0 COSMOS 2330
1 23792U 96009F   25354.77305212  .00000019  00000-0  48458-4 0  9996
2 23792  82.5810  97.4492 0012535 120.7230 239.5097 12.60971928373154
Epoch: 2025-12-20T18:33Z
TLE epoch observation values (Epoch: 2025-12-20T18:33:11.703Z)
Latitude
0.00002°
Longitude
89.55539°
Altitude
1,426.632 km
Speed
7.145 km/s
True Right ascension
06h 29m 47s
True Declination
0° 00' 00"
Sunlit
Object was in full shadow at epoch
Visualization orbit readout
Latitude
Unknown
Longitude
Unknown
Altitude
Unknown
Speed
Unknown
Apparent Right ascension
Unknown
Apparent Declination
Unknown
Sunlit
N/A
Visualization observer readout
Local Sidereal Time
11:15:56
Azimuth
Unknown
Elevation
Unknown
Doppler factor
Unknown
Orbital elements
Apogee altitude
1,426.028 km
Perigee altitude
1,406.488 km
Semi-major axis
7,794.395 km
Eccentricity
0.00125
Inclination
82.581°
RAAN
97.4492°
Arg. of periapsis
120.723°
True anomaly
239.38602°
Mean anomaly
239.5097°
Eccentric anomaly
239.44785°
Mean motion
3.15406 °/min
Orbital period
114.14 mins
BSTAR
0.000048458
Loading maneuver chart data...
Computing Atmospheric mass density...
Loading historical data...
Loading historical data...
Loading historical data...
Loading historical data...
Loading historical data...
Loading historical data...
Loading historical data...

Documentation

Showing up to 5 results
|